Location: Roland
(31.1349°N, 85.4372°W)
Time: 22:13:00
(UTC+00:00)

Tiros 1 - Pass Details

Date: 27 April 2021
Orbit: 630 x 664 km, 48.4° (Epoch: 05 May)

Event Time Altitude Azimuth Distance (km) Brightness Sun altitude
Rises 12:28:20 0° 261° (W) 2,956 9.9 17.5°
Reaches altitude 10° 12:31:01 10° 275° (W) 2,041 9.2 18.1°
Maximum altitude 12:34:54 25° 331° (NNW) 1,296 8.6 18.9°
Drops below altitude 10° 12:38:46 10° 27° (NNE) 2,027 10.2 19.8°
Sets 12:41:27 0° 40° (NE) 2,932 11.2 20.3°
